Location: Unspecified
(42.0334°N, 93.6656°W)
Time: 20:32:31
(UTC-05:00)

Amateur Radio Satellites - All Passes

Search period start: 28 March 2017 20:02
Search period end: 29 March 2017 20:02
Location: Unspecified, 42.0334°N, 93.6656°W

Satellite Date Start Highest point End Downlink Frequencies (MHz)
Time Altitude Azimuth
ISS 28 Mar 20:06:24 20:09:15 29° 136° (SE) 20:12:07 437.550
AO-85 28 Mar 20:20:08 20:23:54 27° 115° (ESE) 20:27:29 145.980
AAUSAT CUBESAT 2 28 Mar 20:24:48 20:28:47 52° 74° (ENE) 20:32:47 437.432
M-CUBED/EXP-1 PRIME 28 Mar 20:27:09 20:31:40 50° 293° (WNW) 20:36:10 437.505
UWE-3 28 Mar 20:27:48 20:32:19 52° 73° (ENE) 20:36:46 435.000/436.395/437.385
XW-2A 28 Mar 20:30:57 20:33:48 24° 264° (W) 20:36:40 145.665 - 145.685
YUBILEINY 28 Mar 20:33:59 20:41:50 40° 274° (W) 20:49:41 435.215
STRAND 1 28 Mar 20:36:30 20:41:36 67° 102° (ESE) 20:46:39 437.568
SEEDS 28 Mar 20:47:52 20:51:46 39° 262° (W) 20:55:42 437.485
PCSat 28 Mar 20:50:32 20:52:40 12° 258° (WSW) 20:54:46 145.827
Oscar 11 28 Mar 20:51:31 20:55:33 40° 72° (ENE) 20:59:36 .
HO-68 28 Mar 20:58:57 21:05:20 35° 263° (W) 21:11:46 435.675
CUTE 1.7 + AOD 2 28 Mar 21:00:28 21:03:33 20° 267° (W) 21:06:40 437.475
ZACube-1 28 Mar 21:03:01 21:07:31 72° 76° (ENE) 21:12:00 437.345
CUBEBUG 2 28 Mar 21:06:49 21:11:16 40° 263° (W) 21:15:42 437.445
DELFI C3 28 Mar 21:22:57 21:26:12 25° 69° (ENE) 21:29:28 145.870
AO-73 28 Mar 21:30:00 21:34:29 65° 259° (W) 21:38:55 145.935
Tancredo 1 28 Mar 21:31:21 21:34:21 39° 333° (NNW) 21:37:22 437.200
RS-15 28 Mar 21:38:23 21:50:45 72° 52° (NE) 22:02:31 29.354- 29.394
ISS 28 Mar 21:42:35 21:45:39 37° 333° (NNW) 21:48:45 437.550
AO-85 28 Mar 22:00:20 22:04:13 31° 310° (NW) 22:07:55 145.980
AAUSAT CUBESAT 2 28 Mar 22:02:46 22:04:34 13° 270° (W) 22:06:22 437.432
UWE-3 28 Mar 22:06:08 22:09:01 16° 269° (W) 22:11:54 435.000/436.395/437.385
LO-87 28 Mar 22:14:28 22:15:23 11° 64° (ENE) 22:16:18 145.935 - 145.965
STRAND 1 28 Mar 22:17:07 22:20:13 16° 299° (WNW) 22:23:19 437.568
Oscar 11 28 Mar 22:28:54 22:31:51 18° 268° (W) 22:34:48 .
ZACube-1 28 Mar 22:42:59 22:44:15 11° 271° (W) 22:45:30 437.345
BEESAT 3 28 Mar 22:50:10 22:54:05 74° 304° (NW) 22:58:05 437.485
TIGRISAT 28 Mar 22:53:07 22:57:05 33° 96° (E) 23:00:58 435.000
DELFI C3 28 Mar 22:57:45 23:00:56 23° 265° (W) 23:04:08 145.870
UNISAT 6 28 Mar 23:03:53 23:08:09 47° 99° (E) 23:12:18 437.425
PRISM 28 Mar 23:04:22 23:08:34 84° 280° (W) 23:12:44 437.425
SO-50 28 Mar 23:08:52 23:13:12 45° 51° (NE) 23:17:31 436.795
Tancredo 1 28 Mar 23:09:04 23:11:06 16° 352° (N) 23:13:09 437.200
BEESAT 2 28 Mar 23:11:28 23:15:23 73° 122° (ESE) 23:19:25 435.950
FO-29 28 Mar 23:20:24 23:25:56 41° 97° (E) 23:30:56 435.910
ISS 28 Mar 23:20:39 23:22:48 16° 353° (N) 23:24:58 437.550
SPROUT 28 Mar 23:26:14 23:27:54 12° 62° (ENE) 23:29:34 437.525
ESTCUBE 1 28 Mar 23:33:25 23:37:45 53° 73° (ENE) 23:42:07 437.505/2401.250
LO-87 28 Mar 23:44:50 23:48:22 52° 260° (W) 23:51:55 145.935 - 145.965
RS-15 28 Mar 23:51:51 00:02:17 36° 256° (WSW) 00:12:21 29.354- 29.394
DX 1 29 Mar 00:04:59 00:07:35 16° 63° (ENE) 00:10:12 434.975-435.025
AIST 2D 29 Mar 00:16:37 00:19:55 38° 98° (E) 00:23:10 435.315
50 SAT 29 Mar 00:27:40 00:30:47 33° 72° (ENE) 00:33:56 437.505
TIGRISAT 29 Mar 00:30:09 00:33:35 23° 294° (WNW) 00:36:58 435.000
BEESAT 3 29 Mar 00:31:23 00:32:25 11° 323° (NW) 00:33:26 437.485
NANOSAT C BR1 29 Mar 00:31:40 00:35:25 30° 97° (E) 00:39:06 145.865
VELOX 1 29 Mar 00:34:28 00:38:51 74° 75° (ENE) 00:43:17 145.980
EO-79 29 Mar 00:37:47 00:41:45 38° 98° (E) 00:45:41 145.935-145.965
UKube-1 29 Mar 00:38:41 00:42:10 24° 67° (ENE) 00:45:40 .
UNISAT 6 29 Mar 00:41:39 00:44:28 17° 296° (WNW) 00:47:14 437.425
Tancredo 1 29 Mar 00:45:54 00:48:09 17° 13° (NNE) 00:50:24 437.200
SO-50 29 Mar 00:50:01 00:53:21 21° 248° (WSW) 00:56:40 436.795
BEESAT 2 29 Mar 00:51:25 00:53:39 14° 320° (NW) 00:55:55 435.950
ISS 29 Mar 00:57:45 01:00:12 19° 14° (NNE) 01:02:39 437.550
SPROUT 29 Mar 00:58:57 01:03:13 69° 258° (WSW) 01:07:32 437.525
FO-29 29 Mar 01:05:51 01:10:47 28° 297° (WNW) 01:15:19 435.910
POLYITAN 1 29 Mar 01:06:34 01:10:49 84° 105° (ESE) 01:15:01 437.675
QB50P2 29 Mar 01:11:20 01:15:36 80° 283° (WNW) 01:19:48 145.880/145.840
ESTCUBE 1 29 Mar 01:12:22 01:14:52 15° 269° (W) 01:17:23 437.505/2401.250
DUCHIFAT 1 29 Mar 01:19:22 01:23:36 85° 282° (WNW) 01:27:46 145.980
BUGSAT 1 29 Mar 01:24:55 01:28:45 35° 97° (E) 01:32:31 437.445
DX 1 29 Mar 01:39:06 01:43:20 52° 260° (W) 01:47:38 434.975-435.025
O/OREOS (USA 219) 29 Mar 01:42:41 01:45:53 18° 54° (NE) 01:49:06 437.305
Oscar 19 29 Mar 01:46:27 01:50:17 21° 93° (E) 01:54:06 437.125/150
BEESAT 29 Mar 01:46:56 01:48:38 12° 59° (ENE) 01:50:21 436.000
AIST 2D 29 Mar 01:51:12 01:52:47 13° 294° (WNW) 01:54:21 435.315
50 SAT 29 Mar 02:02:09 02:03:57 14° 268° (W) 02:05:45 437.505
ITUPSAT 1 29 Mar 02:03:29 02:06:30 17° 62° (ENE) 02:09:33 437.325
NANOSAT C BR1 29 Mar 02:07:37 02:10:58 23° 293° (WNW) 02:14:18 145.865
EO-79 29 Mar 02:14:14 02:17:14 19° 295° (WNW) 02:20:12 145.935-145.965
UKube-1 29 Mar 02:14:15 02:18:03 30° 263° (W) 02:21:54 .
VELOX 1 29 Mar 02:15:23 02:15:49 10° 271° (W) 02:16:14 145.980
Tancredo 1 29 Mar 02:21:36 02:24:46 58° 32° (NNE) 02:27:55 437.200
Gurwin Techsat 1B 29 Mar 02:21:58 02:26:22 26° 94° (E) 02:30:44 435.225
ISS 29 Mar 02:33:51 02:37:08 67° 33° (NNE) 02:40:25 437.550
BUGSAT 1 29 Mar 03:00:49 03:03:52 20° 294° (WNW) 03:06:53 437.445
MOZHAYETS 4 29 Mar 03:14:15 03:18:21 33° 69° (ENE) 03:22:27
BEESAT 29 Mar 03:20:55 03:25:42 85° 254° (WSW) 03:30:31 436.000
O/OREOS (USA 219) 29 Mar 03:21:08 03:25:38 52° 252° (WSW) 03:30:04 437.305
Oscar 19 29 Mar 03:24:52 03:29:51 49° 289° (WNW) 03:34:49 437.125/150
ITUPSAT 1 29 Mar 03:39:10 03:43:53 57° 259° (W) 03:48:37 437.325
ITAMSAT 1 29 Mar 03:39:17 03:43:15 22° 93° (E) 03:47:11 435.822/435.867
AO-7 29 Mar 03:48:45 03:55:33 27° 95° (E) 04:02:18 .
Tancredo 1 29 Mar 03:58:30 04:00:35 16° 228° (SW) 04:02:40 437.200
Gurwin Techsat 1B 29 Mar 04:01:27 04:06:26 41° 291° (WNW) 04:11:23 435.225
ISS 29 Mar 04:11:18 04:13:16 15° 229° (SW) 04:15:12 437.550
KKS-1 29 Mar 04:12:12 04:16:05 30° 68° (ENE) 04:19:59 437.445
CUBESAT XI-V 29 Mar 04:14:23 04:18:02 24° 67° (ENE) 04:21:42 437.345
STARS 29 Mar 04:40:40 04:44:21 27° 67° (ENE) 04:48:04 437.465
AO-85 29 Mar 04:50:30 04:53:51 26° 48° (NE) 04:57:13 145.980
MOZHAYETS 4 29 Mar 04:51:45 04:55:31 25° 265° (W) 04:59:18
ITAMSAT 1 29 Mar 05:17:58 05:22:56 47° 290° (WNW) 05:27:52 435.822/435.867
BEESAT 3 29 Mar 05:31:21 05:32:14 11° 36° (NE) 05:33:07 437.485
M-CUBED/EXP-1 PRIME 29 Mar 05:40:11 05:43:05 21° 60° (ENE) 05:46:09 437.505
AO-7 29 Mar 05:40:39 05:48:52 67° 293° (WNW) 05:57:02 .
KKS-1 29 Mar 05:48:50 05:52:36 27° 264° (W) 05:56:24 437.445
CUBESAT XI-V 29 Mar 05:51:01 05:55:12 35° 263° (W) 05:59:26 437.345
STARS 29 Mar 06:16:44 06:20:36 29° 264° (W) 06:24:30 437.465
STRAND 1 29 Mar 06:16:51 06:19:18 14° 59° (ENE) 06:21:46 437.568
AO-85 29 Mar 06:30:45 06:34:12 29° 244° (WSW) 06:37:45 145.980
XW-2F 29 Mar 06:37:06 06:39:39 17° 93° (E) 06:42:11 145.980 - 146.000
LilacSat-2 29 Mar 06:43:24 06:46:25 23° 95° (E) 06:49:27 437.200
DOVE 4 29 Mar 06:52:46 06:57:54 47° 98° (E) 07:02:53 437.250
NUDT-PHONESAT 29 Mar 06:53:32 06:56:28 22° 95° (E) 06:59:23 437.300
NO-84 29 Mar 06:59:11 07:02:04 67° 321° (NW) 07:04:54 435.350 FM
XW-2D 29 Mar 07:04:09 07:07:42 39° 98° (E) 07:11:14 145.860 - 145.880
KAITUO 1B 29 Mar 07:04:18 07:07:36 30° 97° (E) 07:10:54 145.475/437.950
BEESAT 3 29 Mar 07:06:33 07:10:35 70° 56° (NE) 07:14:34 437.485
XW-2B 29 Mar 07:10:07 07:13:44 45° 99° (E) 07:17:20 145.730 - 145.750
M-CUBED/EXP-1 PRIME 29 Mar 07:13:54 07:17:18 33° 259° (WSW) 07:20:59 437.505
XW-2C 29 Mar 07:20:21 07:24:06 64° 101° (ESE) 07:27:48 145.795 - 145.815
CUTE-I 29 Mar 07:28:12 07:33:31 62° 101° (E) 07:38:47 437.470
BEESAT 2 29 Mar 07:28:46 07:32:44 48° 53° (NE) 07:36:39 435.950
AO-7 29 Mar 07:35:30 07:40:06 16° 314° (NW) 07:44:43 .
YUBILEINY 29 Mar 07:38:06 07:46:27 52° 89° (E) 07:54:46 435.215
XW-2A 29 Mar 07:52:36 07:54:58 18° 94° (E) 07:57:19 145.665 - 145.685
STRAND 1 29 Mar 07:52:37 07:57:46 84° 257° (WSW) 08:02:57 437.568
XW-2F 29 Mar 08:10:33 08:13:51 30° 289° (WNW) 08:17:08 145.980 - 146.000
LilacSat-2 29 Mar 08:17:34 08:20:39 24° 291° (WNW) 08:23:42 437.200
HO-68 29 Mar 08:25:08 08:31:59 46° 99° (E) 08:38:49 435.675
NUDT-PHONESAT 29 Mar 08:27:22 08:30:20 23° 291° (WNW) 08:33:15 437.300
SEEDS 29 Mar 08:31:02 08:34:46 30° 96° (E) 08:38:30 437.485
DOVE 4 29 Mar 08:31:04 08:35:13 24° 295° (WNW) 08:39:18 437.250
KAITUO 1B 29 Mar 08:38:53 08:41:24 18° 293° (WNW) 08:43:55 145.475/437.950
NO-84 29 Mar 08:38:58 08:40:04 12° 340° (NNW) 08:41:12 435.350 FM
XW-2D 29 Mar 08:39:28 08:41:34 15° 294° (WNW) 08:43:39 145.860 - 145.880
CUTE 1.7 + AOD 2 29 Mar 08:43:21 08:47:34 66° 101° (ESE) 08:51:46 437.475
XW-2B 29 Mar 08:45:47 08:47:32 13° 295° (WNW) 08:49:16 145.730 - 145.750
BEESAT 3 29 Mar 08:46:44 08:47:36 11° 252° (WSW) 08:48:25 437.485
ZACube-1 29 Mar 08:52:56 08:54:43 12° 90° (E) 08:56:29 437.345
CUBEBUG 2 29 Mar 08:57:16 09:01:25 41° 98° (E) 09:05:25 437.445
BEESAT 2 29 Mar 09:07:37 09:10:07 16° 250° (WSW) 09:12:36 435.950
CUTE-I 29 Mar 09:09:24 09:13:03 19° 299° (WNW) 09:16:41 437.470
AO-73 29 Mar 09:18:17 09:21:33 22° 94° (E) 09:24:46 145.935
XW-2A 29 Mar 09:24:57 09:27:44 24° 290° (WNW) 09:30:28 145.665 - 145.685
FO-29 29 Mar 09:32:00 09:38:02 26° 62° (ENE) 09:43:43 435.910
YUBILEINY 29 Mar 09:35:41 09:43:30 36° 290° (WNW) 09:51:21 435.215
AAUSAT CUBESAT 2 29 Mar 09:41:30 09:45:40 85° 283° (WNW) 09:49:50 437.432
PCSat 29 Mar 09:46:17 09:51:41 77° 117° (ESE) 09:57:08 145.827
TIGRISAT 29 Mar 09:51:40 09:55:50 33° 69° (ENE) 09:59:57 435.000
UWE-3 29 Mar 09:53:23 09:57:41 76° 284° (WNW) 10:01:50 435.000/436.395/437.385
PRISM 29 Mar 09:53:38 09:57:41 71° 75° (ENE) 10:01:46 437.425
UNISAT 6 29 Mar 10:02:27 10:06:54 45° 72° (ENE) 10:11:20 437.425
SEEDS 29 Mar 10:07:00 10:10:18 23° 292° (WNW) 10:13:36 437.485
HO-68 29 Mar 10:13:09 10:19:31 36° 298° (WNW) 10:25:53 435.675
Oscar 11 29 Mar 10:13:50 10:18:10 81° 103° (ESE) 10:22:27 .
CUTE 1.7 + AOD 2 29 Mar 10:21:16 10:22:50 12° 298° (WNW) 10:24:24 437.475
ZACube-1 29 Mar 10:27:15 10:31:22 54° 286° (WNW) 10:35:24 437.345
DELFI C3 29 Mar 10:33:30 10:37:15 38° 98° (E) 10:41:00 145.870
CUBEBUG 2 29 Mar 10:34:42 10:37:42 18° 295° (WNW) 10:40:38 437.445
AIST 2D 29 Mar 10:52:17 10:54:32 16° 67° (ENE) 10:56:47 435.315
AO-73 29 Mar 10:54:09 10:57:49 30° 290° (WNW) 11:01:27 145.935
LO-87 29 Mar 11:13:17 11:14:37 12° 91° (E) 11:15:56 145.935 - 145.965
FO-29 29 Mar 11:14:44 11:22:30 71° 258° (WSW) 11:29:45 435.910
NANOSAT C BR1 29 Mar 11:24:08 11:27:36 25° 68° (ENE) 11:31:04 145.865
ESTCUBE 1 29 Mar 11:27:59 11:29:02 11° 89° (E) 11:30:06 437.505/2401.250
TIGRISAT 29 Mar 11:28:35 11:32:30 26° 265° (W) 11:36:25 435.000
EO-79 29 Mar 11:30:24 11:34:10 31° 69° (ENE) 11:37:56 145.935-145.965
PCSat 29 Mar 11:31:48 11:35:41 20° 317° (NW) 11:39:37 145.827
UNISAT 6 29 Mar 11:40:28 11:43:48 19° 268° (W) 11:47:06 437.425
Oscar 11 29 Mar 11:53:01 11:53:37 10° 299° (WNW) 11:54:14 .
NO-84 29 Mar 11:55:41 11:57:31 15° 24° (NNE) 11:59:25 435.350 FM
POLYITAN 1 29 Mar 11:58:57 12:03:12 65° 75° (ENE) 12:07:27 437.675
RS-15 29 Mar 12:01:48 12:12:40 43° 107° (ESE) 12:23:52 29.354- 29.394
QB50P2 29 Mar 12:03:43 12:08:00 79° 76° (ENE) 12:12:18 145.880/145.840
DELFI C3 29 Mar 12:09:08 12:11:44 17° 294° (WNW) 12:14:20 145.870
DUCHIFAT 1 29 Mar 12:10:57 12:15:11 72° 75° (ENE) 12:19:27 145.980
BUGSAT 1 29 Mar 12:14:50 12:18:24 27° 68° (ENE) 12:22:00 437.445
AIST 2D 29 Mar 12:24:22 12:27:31 30° 263° (W) 12:30:41 435.315
VELOX 1 29 Mar 12:25:37 12:27:54 14° 91° (E) 12:30:09 145.980
LO-87 29 Mar 12:44:48 12:48:18 44° 287° (WNW) 12:51:46 145.935 - 145.965
SPROUT 29 Mar 12:45:03 12:48:09 19° 93° (E) 12:51:13 437.525
NANOSAT C BR1 29 Mar 12:59:27 13:03:11 29° 264° (W) 13:06:56 145.865
ESTCUBE 1 29 Mar 13:01:49 13:06:20 73° 285° (WNW) 13:10:50 437.505/2401.250
Oscar 19 29 Mar 13:03:31 13:07:59 31° 67° (ENE) 13:12:28 437.125/150
FO-29 29 Mar 13:05:28 13:08:27 12° 274° (W) 13:11:23 435.910
EO-79 29 Mar 13:06:30 13:09:56 23° 265° (W) 13:13:22 145.935-145.965
50 SAT 29 Mar 13:24:05 13:27:19 34° 98° (E) 13:30:32 437.505
SO-50 29 Mar 13:25:51 13:27:53 13° 108° (ESE) 13:29:55 436.795
DX 1 29 Mar 13:27:06 13:30:45 25° 95° (E) 13:34:22 434.975-435.025
NO-84 29 Mar 13:32:17 13:35:23 88° 229° (SW) 13:38:46 435.350 FM
POLYITAN 1 29 Mar 13:38:04 13:39:24 11° 270° (W) 13:40:44 437.675
Gurwin Techsat 1B 29 Mar 13:43:13 13:48:12 43° 69° (ENE) 13:53:13 435.225
BUGSAT 1 29 Mar 13:50:06 13:53:41 27° 264° (W) 13:57:19 437.445
UKube-1 29 Mar 14:00:14 14:04:19 40° 99° (E) 14:08:23 .
VELOX 1 29 Mar 14:00:18 14:04:42 57° 287° (WNW) 14:09:04 145.980
RS-15 29 Mar 14:12:45 14:24:42 63° 311° (NW) 14:37:02 29.354- 29.394
SPROUT 29 Mar 14:20:13 14:24:11 37° 289° (WNW) 14:28:06 437.525
Oscar 19 29 Mar 14:42:42 14:47:14 32° 264° (W) 14:51:49 437.125/150
AO-7 29 Mar 14:48:00 14:55:35 41° 60° (ENE) 15:03:10 .
ITAMSAT 1 29 Mar 14:57:18 15:02:02 36° 67° (ENE) 15:06:47 435.822/435.867
50 SAT 29 Mar 14:58:03 15:00:04 15° 294° (WNW) 15:02:04 437.505
DX 1 29 Mar 15:03:04 15:06:55 30° 292° (WNW) 15:10:44 434.975-435.025
SO-50 29 Mar 15:03:07 15:07:45 75° 304° (WNW) 15:12:22 436.795
BEESAT 29 Mar 15:21:12 15:24:59 23° 94° (E) 15:28:44 436.000
Gurwin Techsat 1B 29 Mar 15:23:59 15:28:17 25° 266° (W) 15:32:37 435.225
UKube-1 29 Mar 15:36:57 15:40:04 20° 295° (WNW) 15:43:10 .
ITUPSAT 1 29 Mar 15:39:18 15:43:38 34° 97° (E) 15:47:56 437.325
O/OREOS (USA 219) 29 Mar 15:56:09 15:59:03 17° 100° (E) 16:01:57 437.305
RS-15 29 Mar 16:30:20 16:40:26 28° 341° (NNW) 16:50:36 29.354- 29.394
ITAMSAT 1 29 Mar 16:37:00 16:41:30 29° 264° (W) 16:46:03 435.822/435.867
AO-7 29 Mar 16:40:15 16:48:12 48° 259° (W) 16:56:11 .
MOZHAYETS 4 29 Mar 16:45:08 16:49:42 74° 102° (ESE) 16:54:15
SO-50 29 Mar 16:46:45 16:49:00 13° 324° (NW) 16:51:15 436.795
PCSat 29 Mar 16:52:04 16:54:43 14° 37° (NE) 16:57:22 145.827
BEESAT 29 Mar 16:58:28 17:02:51 38° 291° (WNW) 17:07:13 436.000
CUTE-I 29 Mar 17:13:25 17:16:23 15° 59° (ENE) 17:19:21 437.470
ITUPSAT 1 29 Mar 17:17:22 17:21:19 26° 294° (WNW) 17:25:14 437.325
LilacSat-2 29 Mar 17:26:52 17:28:44 13° 65° (ENE) 17:30:35 437.200
O/OREOS (USA 219) 29 Mar 17:33:38 17:38:01 48° 297° (WNW) 17:42:28 437.305
NUDT-PHONESAT 29 Mar 17:34:46 17:36:18 12° 65° (ENE) 17:37:51 437.300
KKS-1 29 Mar 17:38:22 17:42:47 55° 101° (E) 17:47:10 437.445
KAITUO 1B 29 Mar 17:45:34 17:47:57 16° 67° (ENE) 17:50:20 145.475/437.950
XW-2D 29 Mar 17:46:11 17:49:06 21° 68° (ENE) 17:52:01 145.860 - 145.880
CUBESAT XI-V 29 Mar 17:46:25 17:51:00 54° 100° (E) 17:55:34 437.345
YUBILEINY 29 Mar 17:48:02 17:55:02 26° 66° (ENE) 18:01:59 435.215
XW-2B 29 Mar 17:52:02 17:55:06 24° 69° (ENE) 17:58:12 145.730 - 145.750
DOVE 4 29 Mar 17:58:08 18:02:41 46° 71° (ENE) 18:07:32 437.250
XW-2C 29 Mar 18:02:01 18:05:25 31° 71° (ENE) 18:08:48 145.795 - 145.815
STARS 29 Mar 18:04:56 18:09:12 46° 100° (E) 18:13:25 437.465
MOZHAYETS 4 29 Mar 18:24:22 18:26:14 12° 299° (WNW) 18:28:07
PCSat 29 Mar 18:33:46 18:39:12 66° 58° (ENE) 18:44:34 145.827
RS-15 29 Mar 18:48:28 18:58:30 27° 17° (NNE) 19:08:20 29.354- 29.394
CUTE-I 29 Mar 18:50:21 18:55:44 80° 256° (WSW) 19:01:09 437.470
XW-2F 29 Mar 18:51:03 18:54:48 63° 259° (WSW) 18:58:33 145.980 - 146.000
M-CUBED/EXP-1 PRIME 29 Mar 18:52:13 18:55:17 17° 97° (E) 18:58:18 437.505
HO-68 29 Mar 18:54:22 19:00:44 37° 63° (ENE) 19:07:07 435.675
LilacSat-2 29 Mar 18:58:56 19:02:37 46° 261° (W) 19:06:18 437.200
Tancredo 1 29 Mar 18:59:50 19:01:05 12° 130° (SE) 19:02:20 437.200
NUDT-PHONESAT 29 Mar 19:06:11 19:09:48 48° 260° (W) 19:13:26 437.300
ISS 29 Mar 19:15:04 19:17:04 15° 132° (SE) 19:19:05 437.550
KKS-1 29 Mar 19:16:12 19:18:53 16° 297° (WNW) 19:21:34 437.445
UWE-3 29 Mar 19:18:13 19:18:42 10° 60° (ENE) 19:19:12 435.000/436.395/437.385
KAITUO 1B 29 Mar 19:18:17 19:21:42 34° 263° (W) 19:25:08 145.475/437.950
XW-2D 29 Mar 19:19:56 19:23:10 26° 264° (W) 19:26:25 145.860 - 145.880
SEEDS 29 Mar 19:23:21 19:26:36 23° 68° (ENE) 19:29:52 437.485
CUBESAT XI-V 29 Mar 19:24:58 19:27:56 17° 296° (WNW) 19:30:54 437.345
XW-2B 29 Mar 19:26:09 19:29:14 23° 265° (W) 19:32:19 145.730 - 145.750
CUTE 1.7 + AOD 2 29 Mar 19:36:05 19:40:07 47° 73° (ENE) 19:44:10 437.475
XW-2C 29 Mar 19:37:04 19:39:40 18° 267° (W) 19:42:17 145.795 - 145.815
DOVE 4 29 Mar 19:37:08 19:40:38 20° 269° (W) 19:44:19 437.250
STARS 29 Mar 19:42:13 19:45:11 18° 296° (WNW) 19:48:07 437.465
YUBILEINY 29 Mar 19:43:58 19:52:37 71° 267° (W) 20:01:15 435.215
ZACube-1 29 Mar 19:49:23 19:51:19 13° 62° (ENE) 19:53:14 437.345
